Weather Roundup
Issued by NWS Springfield, MO

Home | Current Version | Previous Version | Text Only | Print | Product List | Glossary On
Versions: 1 2 3 4 5 6 7 8 9 10 11 12 13 14 15 16 17 18 19 20 21 22 23 24 25 26 27 28 29 30 31 32 33 34 35 36 37 38 39 40 41 42 43 44 45 46 47 48 49 50
000
NZUS99 KSGF 241157
HRRSGF

HOURLY WEATHER
NATIONAL WEATHER SERVICE SPRINGFIELD MO
700 AM CDT MON APR 24 2017

......SGF CWA......

CITY           SKY/WX    TMP DP  RH WIND       PRES   REMARKS
SPRINGFIELD    CLEAR     40  36  86 S3        29.97R
6HR MIN TEMP:  38; 6HR MAX TEMP:  44;

JOPLIN         CLEAR     39  38  96 VRB5      29.97S
6HR MIN TEMP:  38; 6HR MAX TEMP:  44;

WEST PLAINS    CLEAR     42  34  73 CALM      29.98R
6HR MIN TEMP:  39; 6HR MAX TEMP:  50;

ROLLA          PTCLDY    43  34  70 CALM      29.96R
6HR MIN TEMP:  39; 6HR MAX TEMP:  48;

BRANSON        PTCLDY    43  39  87 CALM      29.99S

......SURROUNDING SGF CWA......

CITY           SKY/WX    TMP DP  RH WIND       PRES   REMARKS
CHANUTE        CLEAR     46  40  79 SE10      29.91F
PARSONS        CLEAR     48  40  73 SE5       29.94F
COFFEYVILLE    CLEAR     44  41  89 MISG      29.94F
EMPORIA        CLEAR     46  40  79 S14       29.86F
HARRISON AR    CLEAR     45  35  68 W6        29.98S

......KANSAS AND MISSOURI......

CITY           SKY/WX    TMP DP  RH WIND       PRES   REMARKS
KANSAS CTY INT CLOUDY    44  37  76 S10       29.91R
ST JOSEPH      CLOUDY    48  40  73 S9        29.89F
ST LOUIS       MOCLDY    47  36  65 CALM      29.96R
WICHITA        CLOUDY    48  40  73 S15       29.83F
TOPEKA         CLOUDY    47  39  74 SE6       29.87F
OLATHE         CLEAR     42  38  85 SE6       29.92F

......TENNESSEE......

CITY           SKY/WX    TMP DP  RH WIND       PRES   REMARKS
MEMPHIS        NOT AVBL
NASHVILLE      CLOUDY    55  52  89 N3        29.85R

......ARKANSAS.......

CITY           SKY/WX    TMP DP  RH WIND       PRES   REMARKS
FAYETTEVILLE   CLEAR     35  35 100 CALM      30.00R
FT SMITH       CLEAR     44  41  89 CALM      29.99R
LITTLE ROCK    PTCLDY    48  45  89 W3        29.96R

......OKLAHOMA.......

CITY           SKY/WX    TMP DP  RH WIND       PRES   REMARKS
TULSA          PTCLDY    43  40  89 S3        29.94S
MCALESTER      CLEAR     42  40  92 CALM      29.98R
OKLAHOMA CITY  PTCLDY    44  39  82 SE7       29.91F

......IOWA............

CITY           SKY/WX    TMP DP  RH WIND       PRES   REMARKS
DES MOINES     NOT AVBL
QUAD CITIES    CLOUDY    40  35  83 E6        29.97S

......ILLINOIS........

CITY           SKY/WX    TMP DP  RH WIND       PRES   REMARKS
QUINCY         CLOUDY    50  32  50 SE6       29.97R
CHICAGO        MOSUNNY   42  38  85 N5        30.02S



USA.gov is the U.S. government's official web portal to all federal, state and local government web resources and services.